1998-067WJ

Last updated on Tue Sep 17 2024 00:02:08 GMT+0000 (Coordinated Universal Time)

1 59559U 98067WJ 24259.58353253 .02773785 11856-4 13347-2 0 9993 2 59559 51.6130 207.6515 0002691 179.6011 180.5010 16.20547981 23597

Satellite not in orbit